Date,TemperatureHighF,TemperatureAvgF,TemperatureLowF,DewpointHighF,DewpointAvgF,DewpointLowF,HumidityHigh,HumidityAvg,HumidityLow,PressureMaxIn,PressureMinIn,WindSpeedMaxMPH,WindSpeedAvgMPH,GustSpeedMaxMPH,PrecipitationSumIn
2013-1-1,63,53,45,56,49,43,97,88,76,30.12,29.87,2,0,3,0.02
2013-1-2,61,55,52,55,53,51,99,94,76,30.07,29.84,2,0,4,0.06
2013-1-3,54,48,44,52,45,41,95,90,76,30.22,30.02,2,0,5,0.02
2013-1-4,55,44,34,41,38,32,98,82,55,30.31,30.19,3,0,4,0.00
2013-1-5,53,42,28,41,32,26,93,71,44,30.36,30.22,2,0,4,0.00
2013-1-6,52,47,42,47,43,37,96,85,69,30.22,30.05,2,0,6,0.03
2013-1-7,56,43,33,40,36,32,97,79,50,30.35,30.17,5,0,5,0.00
2013-1-8,56,45,34,48,41,32,95,86,73,30.36,30.26,2,0,3,0.00
2013-1-9,69,54,42,60,50,41,97,89,68,30.39,30.28,1,0,2,0.00
2013-1-10,74,61,47,62,56,47,99,85,57,30.38,30.24,5,1,9,0.01
2013-1-11,74,65,60,67,63,59,100,94,78,30.24,30.08,4,1,6,0.01
2013-1-12,79,66,56,65,61,55,99,86,60,30.13,30.03,4,1,6,0.00
2013-1-13,77,62,58,66,49,-100,97,78,69,30.10,30.00,4,1,7,0.00
2013-1-14,78,23,68,66,-49,-100,88,22,65,30.09,30.00,5,1,8,0.00
2013-1-15,76,28,58,64,-37,-100,98,30,66,30.06,29.94,5,1,9,0.00
2013-1-16,76,24,64,67,-44,-100,90,27,73,29.95,29.86,4,1,8,0.00
2013-1-17,70,11,63,67,-74,-100,100,15,88,30.13,29.67,7,2,12,0.00
2013-1-18,55,19,34,38,-46,-100,97,24,40,30.44,30.13,4,1,6,0.00
2013-1-19,59,5,29,42,-83,-100,93,11,50,30.44,30.17,0,0,0,0.00
2013-1-20,65,22,37,44,-46,-100,96,21,41,30.17,30.00,3,0,6,0.00
2013-1-21,64,16,35,40,-61,-100,95,16,33,30.05,29.94,4,0,5,0.00
2013-1-22,51,23,36,25,-37,-100,59,21,35,30.24,30.03,5,1,10,0.00
2013-1-23,54,20,30,34,-47,-100,68,20,41,30.32,30.11,5,1,9,0.00
2013-1-24,64,25,48,46,-42,-100,84,21,28,30.37,30.05,4,2,8,0.00
2013-1-25,33,4,31,20,-84,-100,57,7,53,30.41,30.10,2,0,6,0.00
2013-1-26,59,21,37,41,-42,-100,87,26,45,30.25,30.06,2,0,5,0.00
2013-1-27,55,19,34,34,-47,-100,87,23,45,30.46,30.25,3,1,6,0.00
2013-1-28,59,13,43,50,-65,-100,82,18,70,30.40,30.23,2,0,3,0.00
2013-1-29,76,25,46,64,-40,-100,96,30,66,30.23,29.99,5,1,5,0.00
2013-1-30,78,40,52,67,-7,-100,94,45,64,29.99,29.48,10,5,19,0.63
2013-1-31,53,46,39,49,33,28,88,61,39,30.13,29.66,6,3,12,0.01
2013-2-1,50,44,32,34,24,16,65,47,26,30.31,30.06,6,2,8,0.00
2013-2-2,56,41,26,39,24,18,81,55,28,30.32,30.05,4,1,7,0.00
2013-2-3,61,48,39,40,36,32,89,65,39,30.05,29.87,6,2,12,0.00
2013-2-4,51,42,34,36,32,29,86,68,47,30.09,29.99,2,0,3,0.00
2013-2-5,66,50,34,51,42,32,95,78,53,30.00,29.90,4,1,7,0.00
2013-2-6,70,54,41,52,43,38,98,72,32,30.11,29.96,2,0,4,0.00
2013-2-7,51,47,44,49,46,40,100,94,82,30.10,29.81,6,1,7,2.64
2013-2-8,62,50,43,53,47,43,98,89,71,30.06,29.83,4,1,9,0.00
2013-2-9,62,46,33,44,37,32,97,74,39,30.26,30.05,3,0,6,0.00
2013-2-10,66,53,38,56,46,35,97,77,56,30.34,30.06,8,2,12,0.22
2013-2-11,66,59,54,65,58,54,99,98,91,30.14,29.99,7,2,11,1.10
2013-2-12,63,54,48,54,51,46,99,88,53,30.07,29.81,2,0,3,0.76
2013-2-13,58,51,46,56,49,43,100,94,81,29.86,29.68,6,1,7,0.26
2013-2-14,52,44,36,43,40,35,96,85,67,30.03,29.85,2,0,3,0.00
2013-2-15,64,46,32,46,38,31,98,78,41,30.07,29.91,3,0,7,0.00
2013-2-16,51,41,33,41,33,19,96,75,40,30.03,29.80,5,1,10,0.12
2013-2-17,47,37,28,26,20,17,74,52,31,30.25,30.03,5,2,10,0.00
2013-2-18,57,42,26,32,27,23,89,59,35,30.35,30.18,4,1,7,0.00
2013-2-19,55,45,39,51,40,30,98,86,59,30.18,29.93,3,0,5,0.25
2013-2-20,60,45,31,33,29,26,85,57,28,30.11,30.00,3,1,5,0.00
2013-2-22,44,42,40,44,41,40,100,97,96,30.12,30.04,1,0,5,0.78
2013-2-23,46,43,40,45,43,39,99,99,98,30.04,29.79,2,0,4,0.58
2013-2-24,70,53,44,51,45,41,99,78,37,29.96,29.83,3,1,5,0.00
2013-2-25,50,46,42,43,39,34,95,78,58,30.02,29.87,8,1,9,0.01
2013-2-26,53,45,39,52,44,38,99,97,93,29.91,29.53,3,1,8,0.19
2013-2-27,62,50,40,45,42,37,97,76,51,29.84,29.72,4,2,12,0.01
2013-2-28,56,48,40,43,37,30,83,67,50,29.89,29.75,5,2,13,0.20
2013-3-1,54,43,32,37,32,28,86,67,50,29.93,29.81,4,1,7,0.30
2013-3-2,46,40,34,40,33,28,88,79,63,29.92,29.83,3,1,6,0.01
2013-3-3,50,39,32,29,27,24,84,64,43,30.00,29.87,4,1,9,0.00
2013-3-4,61,43,27,38,28,22,84,60,28,30.15,29.99,3,1,5,0.00
2013-3-5,68,53,39,58,46,34,98,76,61,30.04,29.62,7,2,14,0.26
2013-3-6,50,43,36,37,30,24,79,61,49,30.08,29.73,7,3,14,0.00
2013-3-7,60,44,29,39,34,27,95,71,42,30.20,30.08,4,1,8,0.00
2013-3-8,63,47,34,36,34,30,89,62,33,30.25,30.12,4,1,9,0.00
2013-3-9,66,50,34,41,36,31,91,62,34,30.30,30.16,3,0,8,0.00
2013-3-10,70,56,42,52,45,39,92,68,42,30.23,30.07,5,2,9,0.00
2013-3-11,71,60,47,58,51,44,88,73,56,30.12,29.77,9,3,12,0.00
2013-3-12,69,60,52,59,51,39,98,75,46,29.95,29.71,5,2,7,0.27
2013-3-13,63,52,42,39,34,27,79,52,29,30.12,29.95,6,2,11,0.00
2013-3-14,57,44,32,34,28,24,79,54,34,30.28,30.12,4,1,7,0.00
2013-3-15,73,55,35,45,37,28,79,54,36,30.18,29.93,5,1,9,0.00
2013-3-16,79,66,54,49,47,44,73,52,32,29.96,29.79,7,2,10,0.00
2013-3-17,74,66,57,58,54,48,83,66,48,29.95,29.86,5,2,9,0.00
2013-3-18,69,60,48,62,56,47,100,87,77,29.99,29.75,7,1,10,0.73
2013-3-19,73,58,48,54,45,33,99,69,25,29.98,29.80,4,1,7,0.02
2013-3-20,62,52,43,41,33,26,76,51,30,30.07,29.80,3,1,5,0.00
2013-3-21,56,46,38,32,25,17,70,45,26,29.91,29.78,5,2,16,0.00
2013-3-22,51,43,35,38,28,20,72,54,41,30.03,29.91,3,1,6,0.00
2013-3-23,55,48,45,52,45,38,97,87,71,29.99,29.82,3,0,5,0.33
2013-3-24,50,48,46,49,47,45,100,98,95,29.83,29.50,4,1,7,1.22
2013-3-25,51,45,39,46,33,26,98,64,44,29.96,29.57,7,3,13,0.01
2013-3-26,49,41,33,32,29,26,77,63,49,30.17,29.94,5,2,8,0.00
2013-3-27,58,44,30,34,30,27,91,63,36,30.25,30.13,4,1,9,0.00
2013-3-28,62,47,32,36,32,28,88,58,32,30.28,30.14,4,1,6,0.00
2013-3-29,67,52,34,42,35,31,91,59,29,30.30,30.13,3,1,6,0.00
2013-3-30,74,62,50,52,47,39,85,61,41,30.17,29.97,4,1,6,0.00
2013-3-31,78,66,60,62,57,52,94,74,51,29.97,29.80,6,2,13,0.07
2013-4-1,77,64,57,62,56,45,99,78,38,29.91,29.80,4,1,6,0.38
2013-4-2,74,60,47,50,46,40,93,64,36,30.08,29.92,4,0,6,0.00
2013-4-3,65,57,47,48,41,36,82,58,39,30.16,30.02,4,1,10,0.01
2013-4-4,54,46,41,45,43,41,98,92,67,30.13,29.90,5,1,10,0.76
2013-4-5,59,48,39,51,44,38,98,87,68,29.99,29.87,5,1,5,0.00
2013-4-6,73,57,39,51,43,38,99,66,31,30.14,29.99,4,1,7,0.00
2013-4-7,76,62,45,58,52,44,96,71,50,30.18,30.02,5,1,7,0.00
2013-4-8,81,67,52,61,57,51,98,72,44,30.12,30.00,4,1,7,0.00
2013-4-9,84,70,56,66,60,55,97,74,49,30.15,30.04,3,1,7,0.00
2013-4-10,85,72,58,65,62,57,98,73,49,30.08,29.91,4,1,8,0.00
2013-4-11,82,71,63,70,66,62,98,87,65,29.92,29.70,7,2,9,0.00
2013-4-12,81,71,60,70,62,48,98,76,38,29.83,29.64,4,2,13,0.07
2013-4-13,80,64,50,50,48,43,83,57,28,29.95,29.83,3,0,4,0.00
2013-4-14,68,59,50,62,55,48,98,86,69,30.02,29.77,8,1,13,0.24
2013-4-15,75,66,60,66,62,59,99,89,71,30.10,29.88,2,0,4,0.00
2013-4-16,82,66,58,67,62,57,99,87,56,30.20,30.10,2,0,5,0.00
2013-4-17,84,78,70,67,65,63,80,64,53,30.16,30.04,3,1,5,0.00
2013-4-18,82,72,60,69,65,59,96,78,60,30.06,29.91,4,2,10,0.00
2013-4-19,82,68,52,71,65,50,98,91,65,29.92,29.76,7,2,12,0.66
2013-4-20,69,55,44,50,45,41,97,74,40,30.18,29.91,4,1,11,0.00
2013-4-21,71,57,42,50,45,41,97,69,41,30.29,30.18,4,1,9,0.00
2013-4-22,71,59,51,47,44,40,76,58,40,30.26,30.10,4,1,7,0.00
2013-4-23,76,60,43,56,49,40,93,70,46,30.17,30.03,3,1,5,0.00
2013-4-24,80,67,56,62,58,54,95,76,52,30.10,29.97,3,1,8,0.00
2013-4-25,80,69,56,63,59,50,89,71,42,30.17,30.00,3,1,10,0.00
2013-4-26,78,63,48,60,52,42,91,68,45,30.32,30.17,4,1,6,0.00
2013-4-27,71,62,54,60,56,52,96,80,66,30.29,30.15,2,0,13,0.06
2013-4-28,74,63,57,68,60,53,99,91,78,30.15,29.93,4,1,6,1.66
2013-4-29,72,64,60,67,63,60,100,96,79,30.00,29.88,1,0,5,0.49
2013-4-30,76,65,56,68,62,55,99,91,73,30.05,29.90,2,0,5,0.02
2013-5-1,69,64,59,62,60,58,97,88,74,30.15,30.04,3,1,9,0.00
2013-5-2,70,65,62,64,61,59,95,88,78,30.13,30.06,3,1,8,0.00
2013-5-3,67,62,58,62,59,56,94,89,81,30.07,29.95,3,1,7,0.00
2013-5-4,62,58,54,58,55,50,98,89,74,29.95,29.80,3,2,6,0.03
2013-5-5,72,61,56,66,59,55,99,94,68,29.81,29.70,4,1,7,0.02
2013-5-6,68,59,51,56,52,49,97,79,54,29.88,29.75,4,1,6,0.00
2013-5-7,71,60,52,57,53,50,97,79,56,29.92,29.82,3,1,7,0.00
2013-5-8,79,66,53,62,56,51,96,73,49,29.97,29.87,3,1,5,0.00
2013-5-9,85,71,57,66,61,56,96,73,47,30.03,29.94,3,0,5,0.00
2013-5-10,83,65,59,67,61,58,98,87,53,30.02,29.98,4,0,7,0.00
2013-5-15,90,83,73,68,63,61,69,53,41,30.07,29.92,4,2,9,0.00
2013-5-16,84,75,66,68,64,60,86,70,50,30.01,29.92,2,0,6,0.00
2013-5-17,87,73,61,68,64,60,97,76,50,30.05,29.95,2,0,3,0.00
2013-5-18,79,72,66,71,67,63,93,85,71,30.06,29.98,2,0,5,0.02
2013-5-19,79,72,68,72,69,67,96,89,74,30.05,29.96,3,0,4,0.00
2013-5-20,84,74,68,74,70,67,98,88,68,30.05,29.95,1,0,5,0.00
2013-5-21,89,73,67,76,69,65,99,87,58,30.00,29.88,6,0,10,0.00
2013-5-22,85,74,64,74,68,63,99,84,60,29.95,29.81,3,1,8,0.00
2013-5-23,86,75,67,73,68,64,98,81,52,29.90,29.80,3,1,5,0.15
2013-5-24,84,72,62,64,57,45,87,60,28,30.11,29.85,4,1,9,0.00
2013-5-25,81,66,50,55,49,46,89,58,35,30.25,30.10,2,0,6,0.00
2013-5-26,85,69,55,62,56,52,94,66,34,30.20,30.08,3,1,5,0.00
2013-5-27,87,74,62,66,61,56,88,66,45,30.17,30.05,4,1,6,0.00
2013-5-28,87,76,63,70,65,62,96,72,50,30.15,30.06,4,1,12,0.00
2013-5-29,87,75,62,69,65,60,97,73,48,30.17,30.07,3,1,7,0.00
2013-5-30,90,77,64,72,68,63,97,76,49,30.19,30.05,3,1,8,0.00
2013-5-31,90,78,69,73,70,67,100,78,52,30.15,30.01,3,1,10,0.00
2013-6-1,89,78,66,73,70,65,98,79,54,30.07,29.94,3,1,7,0.00
2013-6-2,89,78,70,75,72,68,96,81,58,30.01,29.81,3,1,7,0.61
2013-6-3,87,75,70,76,73,69,100,93,66,29.87,29.79,5,0,5,0.68
2013-6-4,90,76,69,78,72,69,100,88,61,29.96,29.86,3,0,6,0.01
2013-6-5,82,72,70,76,71,70,99,97,84,29.97,29.87,3,0,4,0.75
2013-6-6,76,72,69,75,71,69,100,98,93,29.89,29.66,4,0,9,1.08
2013-6-7,86,74,67,76,71,67,100,91,69,29.82,29.52,4,1,9,1.60
2013-6-8,85,75,67,74,70,67,99,87,65,30.01,29.78,2,0,7,0.01
2013-6-9,85,73,69,77,72,69,100,96,76,30.06,29.98,5,0,6,1.79
2013-6-10,80,73,70,77,73,70,100,98,88,30.01,29.90,4,1,8,1.03
2013-6-11,90,79,70,80,74,69,100,88,66,29.98,29.86,2,1,9,0.00
2013-6-12,95,83,72,80,76,72,99,80,55,29.95,29.86,2,0,4,0.00
2013-6-13,94,85,76,78,76,74,95,75,56,29.87,29.65,4,1,12,0.00
2013-6-14,88,79,70,74,67,64,95,70,46,29.93,29.70,3,1,7,0.00
2013-6-15,87,76,64,69,65,60,93,70,43,30.06,29.94,2,0,6,0.00
2013-6-16,88,77,65,73,68,64,95,75,56,30.10,29.95,3,1,6,0.00
2013-6-17,88,76,69,77,71,67,99,85,64,30.00,29.87,4,1,9,0.42
2013-6-18,85,75,69,79,73,69,100,93,77,29.93,29.78,4,1,9,0.46
2013-6-19,80,75,71,76,73,69,99,94,87,30.01,29.83,2,0,5,0.02
2013-6-20,87,76,66,72,68,65,99,80,54,30.11,30.00,3,1,7,0.00
2013-6-21,87,75,64,69,66,63,98,76,53,30.16,30.07,3,1,7,0.00
2013-6-22,88,76,66,74,69,63,99,81,60,30.12,30.01,2,1,6,1.31
2013-6-23,85,74,68,78,73,68,100,95,71,30.13,30.04,4,0,7,0.35
2013-6-24,87,76,71,78,74,71,100,93,72,30.15,30.06,3,0,3,0.44
2013-6-25,88,75,69,78,72,68,100,91,66,30.11,29.98,8,0,12,1.40
2013-6-26,88,76,70,80,74,70,100,94,70,30.01,29.88,2,0,4,0.31
2013-6-27,84,76,74,78,74,73,99,96,82,29.91,29.86,2,0,4,0.00
2013-7-1,82,78,75,76,75,73,97,91,80,29.89,29.81,3,1,7,0.45
2013-7-2,78,74,72,76,73,71,99,96,91,30.06,29.90,3,1,9,0.35
2013-7-3,82,74,71,77,74,71,99,97,84,30.12,30.03,6,0,6,0.14
2013-7-4,88,77,69,79,74,69,100,92,71,30.12,30.04,4,1,8,0.43
2013-7-5,85,76,71,78,74,70,100,95,77,30.15,30.09,4,1,7,0.20
2013-7-6,85,76,72,79,75,72,100,96,77,30.14,30.03,4,1,7,0.53
2013-7-7,86,76,73,80,75,73,100,96,80,30.12,30.01,2,0,5,0.88
2013-7-8,86,76,71,80,74,71,100,94,77,30.12,30.05,5,0,5,0.37
2013-7-9,88,77,71,82,76,71,100,95,73,30.12,30.00,4,0,5,0.38
2013-7-10,76,75,74,76,75,74,100,100,100,30.06,30.03,0,0,0,0.23
2013-8-5,88,82,76,77,73,70,81,75,68,29.96,29.89,3,1,10,0.11
2013-8-6,86,78,72,79,74,69,93,87,75,29.98,29.89,2,0,4,0.00
2013-8-7,89,79,71,77,73,68,93,82,62,30.00,29.92,2,0,5,0.00
2013-8-8,92,81,71,77,74,68,93,79,56,29.99,29.92,2,0,7,0.00
2013-8-9,90,80,76,80,77,73,93,89,68,30.04,29.95,2,0,6,0.01
2013-8-10,93,83,74,79,76,71,94,80,58,30.06,29.98,3,1,6,0.00
2013-8-11,94,83,73,78,75,70,94,78,56,30.08,29.98,3,1,7,0.00
2013-8-12,90,79,74,79,75,72,93,88,69,30.02,29.99,2,0,3,0.00
2013-9-3,91,90,90,79,78,77,70,68,65,29.79,29.78,2,1,3,0.00
2013-9-26,77,70,62,67,64,61,97,82,66,29.93,29.84,3,1,9,0.00
2013-9-27,78,66,56,64,59,55,97,80,53,30.07,29.93,3,1,6,0.00
2013-9-28,76,65,55,60,57,54,97,79,54,30.15,30.05,3,1,8,0.00
2013-9-29,76,65,55,64,59,54,95,81,59,30.08,29.94,2,0,7,0.00
2013-9-30,74,63,54,62,58,53,100,83,58,30.03,29.93,2,0,6,0.00
2013-10-1,80,66,54,66,60,54,97,82,57,30.10,29.98,2,0,5,0.00
2013-10-2,84,69,57,68,62,56,97,80,50,30.10,30.00,1,0,4,0.00
2013-10-3,84,71,60,68,64,59,97,80,51,30.08,29.99,2,0,3,0.00
2013-10-4,86,72,61,72,65,60,97,82,54,30.09,30.00,2,0,4,0.00
2013-10-5,88,73,61,70,66,60,97,81,53,30.07,29.94,2,0,5,0.00
2013-10-6,85,72,63,72,68,62,97,86,62,29.99,29.82,3,0,6,0.14
2013-10-7,79,74,68,76,72,67,97,95,87,29.87,29.74,0,0,0,0.39
2013-10-8,68,46,59,67,15,-100,97,64,79,30.08,29.84,3,1,8,0.06
2013-10-9,74,29,59,59,-35,-100,81,27,53,30.11,30.01,3,1,7,0.00
2013-10-10,76,28,54,61,-36,-100,97,26,56,30.05,29.91,0,0,0,0.00
2013-10-11,81,30,57,65,-36,-100,97,26,56,29.95,29.84,0,0,0,0.00
2013-10-12,82,30,58,68,-34,-100,97,28,58,29.99,29.89,0,0,0,0.00
2013-10-13,76,27,66,68,-38,-100,95,31,75,30.10,29.99,0,0,0,0.00
2013-10-14,70,23,66,66,-44,-100,93,30,86,30.12,30.05,0,0,0,0.00
2013-10-15,74,46,60,63,8,-100,93,53,63,30.08,29.95,0,0,0,0.00
2013-10-16,77,66,56,66,62,55,97,86,65,30.00,29.89,0,0,0,0.00
2013-10-17,82,71,62,70,66,61,97,85,64,29.91,29.81,0,0,0,0.00
2013-10-18,77,71,68,69,68,67,97,90,71,29.93,29.83,0,0,0,0.01
2013-10-19,74,67,61,67,61,56,97,83,62,29.90,29.83,0,0,0,0.03
2013-10-20,72,62,53,58,55,52,97,80,54,29.99,29.88,0,0,0,0.00
2013-10-21,71,61,52,62,56,51,97,87,66,30.06,29.94,0,0,0,0.00
2013-10-22,68,63,59,63,60,58,97,92,79,29.98,29.78,0,0,0,0.00
2013-10-23,70,61,51,62,50,40,97,72,36,30.00,29.74,4,0,5,0.00
2013-10-24,66,52,39,49,42,37,95,70,42,30.15,30.00,2,0,7,0.00
2013-10-25,59,50,40,47,42,37,94,75,48,30.29,30.10,2,0,5,0.00
2013-10-26,62,48,33,43,38,32,96,72,41,30.29,30.09,2,0,4,0.00
2013-10-27,72,56,42,58,49,40,93,79,56,30.09,30.00,2,0,6,0.00
2013-10-28,72,61,54,61,57,53,97,87,64,30.21,30.07,1,0,3,0.00
2013-10-29,74,61,52,62,56,51,97,86,62,30.28,30.18,2,0,2,0.00
2013-10-30,78,63,52,62,57,52,97,83,55,30.26,30.11,3,0,5,0.00
2013-10-31,79,67,55,69,62,54,97,86,67,30.13,29.88,5,1,9,0.00
2013-11-1,73,67,63,70,65,62,97,93,87,29.88,29.67,3,1,9,0.09
2013-11-2,71,61,51,62,54,48,97,81,49,29.94,29.70,3,0,9,0.00
2013-11-3,64,52,43,49,45,42,97,79,49,30.25,29.94,2,0,3,0.00
2013-11-4,63,51,42,44,42,40,96,73,43,30.41,30.25,2,0,6,0.00
2013-11-5,65,54,40,55,47,37,90,80,64,30.42,30.29,3,0,7,0.00
2013-11-6,73,61,52,63,56,50,97,86,69,30.30,30.05,1,0,5,0.00
2013-11-7,73,61,52,65,55,39,97,84,58,30.07,29.90,2,0,10,0.00
2013-11-8,59,49,40,42,39,36,93,71,45,30.26,30.07,2,0,6,0.01
2013-11-9,62,49,36,45,40,35,97,76,38,30.31,30.18,1,0,3,0.00
2013-11-10,67,54,46,51,46,44,94,78,45,30.20,30.09,1,0,4,0.00
2013-11-11,64,52,42,45,42,37,97,71,43,30.25,30.12,2,0,6,0.00
2013-11-12,71,52,38,50,42,31,97,72,39,30.36,29.97,6,1,13,0.00
2013-11-13,49,38,30,31,24,21,85,60,35,30.50,30.36,4,1,7,0.00
2013-11-14,58,41,26,34,28,23,95,66,25,30.46,30.28,3,0,4,0.00
2013-11-15,62,51,37,56,47,33,94,86,74,30.27,30.09,0,0,1,0.00
2013-11-16,71,62,56,62,58,55,96,88,71,30.18,30.07,2,0,3,0.00
2013-11-17,69,63,53,67,61,53,97,95,87,30.11,29.89,3,0,7,0.01
2013-11-18,82,70,53,72,59,40,97,71,42,29.92,29.78,3,0,6,0.00
2013-11-19,62,52,42,40,36,32,86,58,34,30.14,29.91,4,0,8,0.00
2013-11-20,57,50,42,44,38,34,75,64,54,30.29,30.12,3,1,7,0.00
2013-11-21,56,53,51,54,49,44,97,85,70,30.34,30.28,2,0,7,0.00
2013-11-22,69,57,50,64,56,50,97,95,85,30.29,30.09,1,0,2,0.00
2013-11-23,66,60,50,61,56,35,97,89,50,30.11,29.98,2,0,6,0.00
2013-11-24,51,42,32,38,25,18,75,53,38,30.45,30.11,4,1,11,0.00
2013-11-25,50,41,29,33,22,14,60,49,35,30.47,30.21,2,1,5,0.00
2013-11-26,67,49,43,66,46,33,97,89,61,30.21,29.55,4,0,7,0.00
2013-11-27,48,43,31,47,39,26,97,88,69,30.19,29.51,3,1,11,0.00
2013-11-28,47,35,25,32,28,24,96,77,49,30.44,30.19,2,0,3,0.00
2013-11-29,56,40,27,38,32,26,97,78,43,30.49,30.39,1,0,3,0.00
2013-11-30,52,43,35,40,35,29,94,73,57,30.53,30.28,3,0,5,0.00
2013-12-1,58,48,41,48,43,37,96,82,66,30.28,29.97,0,0,1,0.00
2013-12-2,62,51,44,49,46,43,97,84,53,29.97,29.77,3,0,5,0.00
2013-12-3,60,54,48,58,53,47,100,96,91,29.90,29.81,4,0,8,0.00
2013-12-4,69,61,57,66,60,56,97,96,88,30.01,29.87,2,0,3,0.00
2013-12-5,68,64,59,67,63,58,98,97,96,30.07,29.99,3,1,7,0.07
2013-12-6,66,65,65,64,64,64,98,97,95,30.02,30.00,2,1,3,0.00
2013-12-12,52,40,32,35,33,31,93,77,48,30.33,30.28,0,0,0,0.00
2013-12-13,56,41,28,41,34,27,97,78,41,30.34,30.15,4,0,7,0.00
2013-12-14,58,52,46,57,50,42,97,93,85,30.17,29.76,4,0,5,1.27
2013-12-15,53,48,36,52,44,34,98,86,68,30.10,29.73,3,1,5,0.05
2013-12-16,60,43,30,40,35,29,96,78,43,30.18,30.09,2,0,4,0.00
2013-12-17,63,49,34,42,38,33,96,69,42,30.17,30.01,3,0,7,0.01
2013-12-18,54,45,34,38,32,25,87,64,33,30.26,30.05,3,0,4,0.00
2013-12-19,62,44,29,45,36,28,96,78,42,30.32,30.18,2,0,3,0.00
2013-12-20,68,52,39,58,49,39,100,89,68,30.21,30.09,3,0,6,0.00
2013-12-21,78,64,49,66,59,48,100,85,64,30.10,29.93,7,1,12,0.00
2013-12-22,76,70,65,70,67,64,97,91,80,30.01,29.93,6,2,11,0.54
2013-12-23,69,60,48,68,59,45,97,96,89,30.11,29.94,3,1,6,0.95
2013-12-24,53,44,34,45,36,29,95,75,44,30.33,30.10,4,1,9,0.00
2013-12-25,46,38,29,30,26,22,84,63,47,30.47,30.32,3,0,7,0.00
2013-12-26,53,42,36,41,36,27,96,78,56,30.32,30.19,2,0,5,0.01
2013-12-27,54,41,33,37,34,32,97,79,48,30.40,30.27,2,0,4,0.00
2013-12-28,54,42,30,44,37,29,97,87,49,30.36,30.01,1,0,5,0.47
2013-12-29,58,50,44,53,48,43,97,94,81,30.00,29.73,3,1,8,1.43
2013-12-30,57,48,38,48,44,37,97,88,70,30.12,29.93,2,0,5,0.00
2013-12-31,54,48,39,47,41,36,92,78,50,30.31,30.11,3,0,7,0.00
2014-1-1,50,44,37,45,41,36,100,90,73,30.33,30.09,0,0,0,0.00
2014-1-2,52,46,34,51,45,29,97,94,78,30.09,29.66,5,1,11,0.33